Regional Weather Roundup
Issued by NWS

Home | Current Version | Previous Version | Graphics & Text | Print | Product List | Glossary On
Versions: 1 2 3 4 5 6 7 8 9 10 11 12 13 14 15 16 17 18 19 20 21 22 23 24 25 26 27 28 29 30 31 32 33 34 35 36 37 38 39 40 41 42 43 44 45 46 47 48 49 50
000
ASUS44 KMEG 230310
RWRTN
TENNESSEE HOURLY STATE WEATHER ROUNDUP
NATIONAL WEATHER SERVICE MEMPHIS TN
1000 PM CDT MON AUG 22 2016

TNZ002-004-019-021-049-052-054-088>092-230400-
WEST TENNESSEE

CITY           SKY/WX    TMP DP  RH WIND       PRES   REMARKS
MEMPHIS INTL   PTCLDY    78  70  76 S6        30.17R
NWS MEMPHIS      N/A     74 N/A N/A MISG        N/A
JACKSON        CLEAR     68  66  93 SE3       30.19R
DYERSBURG      CLEAR    N/A N/A N/A MISG        N/A
UNION CITY     CLEAR     66  64  94 CALM      30.18S
PARIS          CLEAR     61  61 100 CALM      30.21R
$$

TNZ008-025-027-028-033-062-065-066-230400-
NORTH MIDDLE TENNESSEE

CITY           SKY/WX    TMP DP  RH WIND       PRES   REMARKS
NASHVILLE      PTCLDY    68  62  81 S3        30.21R
CLARKSVILLE    CLEAR     66  61  84 CALM      30.21R
SMYRNA         CLEAR     72  64  78 MISG      30.21R
COOKEVILLE     MOCLDY    63  63 100 CALM      30.22R VSB 3/4
CROSSVILLE     CLEAR     62  60  93 CALM      30.26R
$$

TNZ061-075-076-078-094-096-097-230400-
SOUTH MIDDLE TENNESSEE

CITY           SKY/WX    TMP DP  RH WIND       PRES   REMARKS
FAYETTEVILLE   PTCLDY    70  64  83 CALM      30.22R
TULLAHOMA      CLEAR     64  61  88 CALM      30.24R
WINCHESTER     CLEAR     64  63  94 CALM      30.22S
MCMINNVILLE    CLEAR     64  64 100 CALM      30.23R
COLUMBIA       CLEAR    N/A N/A N/A CALM      30.20R
SHELBYVILLE    CLEAR     64  64 100 CALM      30.23R
$$

TNZ017-018-042-046-047-230400-
NORTHEAST TENNESSEE

CITY           SKY/WX    TMP DP  RH WIND       PRES   REMARKS
TRI CITIES     PTCLDY    64  58  80 CALM      30.25R
ELIZABETHTON   PTCLDY    64  59  82 NE5       30.26R
$$

TNZ012-013-036-069-073-074-230400-
CENTRAL EAST TENNESSEE

CITY           SKY/WX    TMP DP  RH WIND       PRES   REMARKS
KNOXVILLE      CLOUDY    72  60  66 NE5       30.21R
OAK RIDGE      PTCLDY    69  63  81 CALM      30.23R
GATLINBURG     CLEAR     66  63  88 CALM      30.22S
MORRISTOWN     CLEAR     68  61  77 CALM      30.23S
$$

TNZ083-085-099-230400-
SOUTHEAST TENNESSEE

CITY           SKY/WX    TMP DP  RH WIND       PRES   REMARKS
CHATTANOOGA    CLOUDY    72  63  73 NW3       30.20R
$$

SKY/WX REPORTED AS FAIR MEANS FEW OR NO CLOUDS BELOW
12 THOUSAND FEET.





USA.gov is the U.S. government's official web portal to all federal, state and local government web resources and services.